Sergeant Bluff, IA

12:09 AM CST on February 26, 2017 (GMT -0600)
Sioux Gateway

Weather History for KSUX - February, 2014

Change the Weather History Date:

Tuesday, February 11, 2014

  Actual Average Record
Temperature  
Mean Temperature 15 °F 24 °F  
Max Temperature 23 °F 34 °F 63 °F (1977)
Min Temperature 7 °F 14 °F -31 °F (1899)
Degree Days  
Heating Degree Days 50 41  
Month to date heating degree days 616 466  
Since 1 July heating degree days 4931 4642  
Cooling Degree Days 0 0  
Month to date cooling degree days 0 0  
Year to date cooling degree days 0 0  
Moisture  
Dew Point 7 °F    
Average Humidity 65    
Maximum Humidity 73    
Minimum Humidity 56    
Precipitation  
Precipitation 0.00 in 0.02 in 0.48 in (1965)
Month to date precipitation 0.10 0.23  
Year to date precipitation 0.29 0.85  
Snow  
Snow 0.00 in 0.20 in 6.70 in (1965)
Month to date snowfall 2.4 2.6  
Since 1 July snowfall 7.7 22.5  
Snow Depth 1.00 in    
Sea Level Pressure  
Sea Level Pressure 30.26 in    
Wind  
Wind Speed 14 mph (SSE)    
Max Wind Speed 24 mph    
Max Gust Speed 30 mph    
Visibility 10 miles    
Events      
T = Trace of Precipitation, MM = Missing Value Source: NWS Daily Summary

Daily Weather History Graph

Daily Weather History Graph

Search for Another Location

Airport or City:

Trip Planner

Search our weather history database for the weather conditions in past years. The results will help you decide how hot, cold, wet, or windy it might be!

Date:

Astronomy

Feb. 11, 2014 Rise Set
Actual Time 7:27 AM CST 5:52 PM CST
Civil Twilight 6:58 AM CST 6:21 PM CST
Nautical Twilight 6:25 AM CST 6:54 PM CST
Astronomical Twilight 5:52 AM CST 7:27 PM CST
Moon 3:12 PM CST (2/11) 5:06 AM CST (2/11)
Length of Visible Light 11h 23m
Length of Day
10h 25m
Waxing Gibbous, 91% of the Moon is Illuminated
Feb 11
Waxing Gibbous
Feb 14
Full
Feb 22
Last Quarter
Mar 1
New
Mar 8
First Quarter

Hourly Weather History & Observations

Time (CST) Temp. Windchill Dew Point Humidity Pressure Visibility Wind Dir Wind Speed Gust Speed Precip Events Conditions
12:52 AM 8.1 °F -4.3 °F -0.9 °F 67% 30.50 in 10.0 mi ESE 8.1 mph - N/A   Overcast
1:52 AM 8.1 °F -3.2 °F -0.9 °F 67% 30.48 in 10.0 mi SE 6.9 mph - N/A   Overcast
2:52 AM 8.1 °F -3.2 °F -0.0 °F 70% 30.48 in 10.0 mi SSE 6.9 mph - N/A   Overcast
3:52 AM 9.0 °F -0.9 °F 1.0 °F 70% 30.46 in 10.0 mi ESE 5.8 mph - N/A   Overcast
4:52 AM 10.0 °F -2.9 °F 3.0 °F 73% 30.45 in 10.0 mi South 9.2 mph - N/A   Overcast
5:52 AM 10.0 °F -2.9 °F 1.9 °F 70% 30.45 in 10.0 mi SSE 9.2 mph - N/A   Overcast
6:52 AM 9.0 °F -4.2 °F 1.0 °F 70% 30.44 in 10.0 mi SSE 9.2 mph - N/A   Overcast
7:52 AM 8.1 °F -5.3 °F -0.0 °F 70% 30.43 in 10.0 mi SE 9.2 mph - N/A   Overcast
8:52 AM 9.0 °F -4.2 °F 1.0 °F 70% 30.42 in 10.0 mi SSE 9.2 mph - N/A   Overcast
9:52 AM 12.0 °F -2.7 °F 3.0 °F 67% 30.39 in 10.0 mi South 12.7 mph - N/A   Overcast
10:52 AM 15.1 °F -1.1 °F 3.9 °F 61% 30.38 in 10.0 mi SSE 17.3 mph - N/A   Overcast
11:52 AM 18.0 °F 2.6 °F 6.1 °F 60% 30.34 in 10.0 mi South 17.3 mph - N/A   Overcast
11:59 AM 19.0 °F 3.6 °F 6.1 °F 57% 30.26 in 10.0 mi South 18.4 mph - N/A   Overcast
12:52 PM 19.0 °F 3.6 °F 7.0 °F 59% 30.29 in 10.0 mi SSE 18.4 mph - N/A   Overcast
1:52 PM 21.0 °F 7.1 °F 9.0 °F 60% 30.23 in 10.0 mi South 16.1 mph - N/A   Overcast
2:52 PM 21.9 °F 6.2 °F 10.0 °F 60% 30.20 in 10.0 mi South 21.9 mph 28.8 mph N/A   Overcast
3:52 PM 21.9 °F 6.2 °F 10.9 °F 63% 30.17 in 10.0 mi South 21.9 mph 27.6 mph N/A   Overcast
4:52 PM 21.9 °F 6.2 °F 10.9 °F 63% 30.15 in 10.0 mi South 21.9 mph 27.6 mph N/A   Overcast
5:52 PM 21.9 °F 8.2 °F 12.0 °F 66% 30.13 in 10.0 mi South 16.1 mph - N/A   Overcast
6:52 PM 21.0 °F 8.1 °F 12.0 °F 68% 30.13 in 10.0 mi South 13.8 mph - N/A   Overcast
7:52 PM 21.0 °F 6.6 °F 12.0 °F 68% 30.12 in 10.0 mi South 17.3 mph - N/A   Mostly Cloudy
8:04 PM 21.0 °F 6.6 °F 10.9 °F 65% 30.05 in 10.0 mi South 17.3 mph 25.3 mph N/A   Partly Cloudy
8:20 PM 21.0 °F 8.1 °F 10.9 °F 65% 30.05 in 10.0 mi South 13.8 mph 25.3 mph N/A   Mostly Cloudy
8:32 PM 21.0 °F 7.6 °F 10.9 °F 65% 30.05 in 10.0 mi South 15.0 mph 24.2 mph N/A   Scattered Clouds
8:52 PM 21.0 °F 8.1 °F 10.9 °F 65% 30.13 in 10.0 mi South 13.8 mph 26.5 mph N/A   Clear
9:52 PM 19.9 °F 6.2 °F 10.0 °F 65% 30.13 in 10.0 mi South 15.0 mph - N/A   Overcast
10:52 PM 19.9 °F 3.5 °F 10.0 °F 65% 30.10 in 10.0 mi South 21.9 mph 29.9 mph N/A   Overcast
11:52 PM 19.9 °F 6.2 °F 10.0 °F 65% 30.07 in 10.0 mi South 15.0 mph - N/A   Overcast